Time,TemperatureF,DewpointF,PressureIn,WindDirection,WindDirectionDegrees,WindSpeedMPH,WindSpeedGustMPH,Humidity,HourlyPrecipIn,Conditions,Clouds,dailyrainin,SoftwareType,DateUTC
2013-08-19 00:15:00,71.2,69.7,29.95,East,90,0.0,-999.0,95,-99.99,,,0.01,Acu-Link.com,2013-08-19 04:15:00,
2013-08-19 00:30:00,71.1,69.6,29.94,NE,45,0.0,-999.0,95,-99.99,,,0.01,Acu-Link.com,2013-08-19 04:30:00,
2013-08-19 00:45:00,71.1,69.6,29.94,NE,45,0.0,-999.0,95,-99.99,,,0.02,Acu-Link.com,2013-08-19 04:45:00,
2013-08-19 01:00:00,71.1,69.6,29.94,WSW,247,0.0,-999.0,95,-99.99,,,0.02,Acu-Link.com,2013-08-19 05:00:00,
2013-08-19 01:15:00,70.9,69.4,29.95,WSW,247,0.0,-999.0,95,-99.99,,,0.02,Acu-Link.com,2013-08-19 05:15:00,
2013-08-19 01:30:00,70.9,69.4,29.94,NE,45,0.0,-999.0,95,-99.99,,,0.02,Acu-Link.com,2013-08-19 05:30:00,
2013-08-19 01:45:00,70.9,69.4,29.94,North,0,0.0,-999.0,95,-99.99,,,0.02,Acu-Link.com,2013-08-19 05:45:00,
2013-08-19 02:00:00,70.9,69.4,29.93,East,90,1.1,-999.0,95,-99.99,,,0.07,Acu-Link.com,2013-08-19 06:00:00,
2013-08-19 02:16:00,70.9,69.7,29.92,ESE,112,2.7,-999.0,96,-99.99,,,0.49,Acu-Link.com,2013-08-19 06:16:00,
2013-08-19 02:31:00,70.9,69.7,29.92,East,90,2.7,-999.0,96,-99.99,,,0.67,Acu-Link.com,2013-08-19 06:31:00,
2013-08-19 02:46:00,70.7,69.5,29.91,East,90,0.0,-999.0,96,-99.99,,,0.81,Acu-Link.com,2013-08-19 06:46:00,
2013-08-19 03:01:00,70.5,69.3,29.90,North,0,2.7,-999.0,96,-99.99,,,1.22,Acu-Link.com,2013-08-19 07:01:00,
2013-08-19 03:16:00,70.5,69.3,29.89,SE,135,1.7,-999.0,96,-99.99,,,1.23,Acu-Link.com,2013-08-19 07:16:00,
2013-08-19 03:32:00,70.5,69.3,29.89,ESE,112,1.1,-999.0,96,-99.99,,,1.23,Acu-Link.com,2013-08-19 07:32:00,
2013-08-19 03:47:00,70.5,69.3,29.90,SSW,202,0.0,-999.0,96,-99.99,,,1.23,Acu-Link.com,2013-08-19 07:47:00,
2013-08-19 04:02:00,70.3,69.1,29.90,NNE,22,1.1,-999.0,96,-99.99,,,1.24,Acu-Link.com,2013-08-19 08:02:00,
2013-08-19 04:17:00,70.3,69.1,29.89,NE,45,0.0,-999.0,96,-99.99,,,1.24,Acu-Link.com,2013-08-19 08:17:00,
2013-08-19 04:33:00,70.3,69.1,29.89,SSE,157,0.0,-999.0,96,-99.99,,,1.24,Acu-Link.com,2013-08-19 08:33:00,
2013-08-19 04:48:00,70.2,69.0,29.89,NNE,22,0.0,-999.0,96,-99.99,,,1.24,Acu-Link.com,2013-08-19 08:48:00,
2013-08-19 05:03:00,70.0,68.8,29.89,East,90,1.7,-999.0,96,-99.99,,,1.24,Acu-Link.com,2013-08-19 09:03:00,
2013-08-19 05:18:00,69.8,68.6,29.88,South,180,0.0,-999.0,96,-99.99,,,1.24,Acu-Link.com,2013-08-19 09:18:00,
2013-08-19 05:33:00,69.8,68.6,29.88,WSW,247,0.0,-999.0,96,-99.99,,,1.24,Acu-Link.com,2013-08-19 09:33:00,
2013-08-19 05:48:00,69.6,68.4,29.88,ENE,67,3.2,-999.0,96,-99.99,,,1.24,Acu-Link.com,2013-08-19 09:48:00,
2013-08-19 06:03:00,69.6,68.4,29.88,West,270,0.0,-999.0,96,-99.99,,,1.24,Acu-Link.com,2013-08-19 10:03:00,
2013-08-19 06:18:00,69.6,68.4,29.88,SW,225,0.0,-999.0,96,-99.99,,,1.24,Acu-Link.com,2013-08-19 10:18:00,
2013-08-19 06:34:00,69.6,68.4,29.89,East,90,1.1,-999.0,96,-99.99,,,1.24,Acu-Link.com,2013-08-19 10:34:00,
2013-08-19 06:49:00,69.8,68.6,29.88,SSW,202,0.0,-999.0,96,-99.99,,,1.24,Acu-Link.com,2013-08-19 10:49:00,
2013-08-19 07:04:00,69.8,68.6,29.88,WSW,247,0.0,-999.0,96,-99.99,,,1.24,Acu-Link.com,2013-08-19 11:04:00,
2013-08-19 07:19:00,69.8,68.6,29.88,East,90,0.0,-999.0,96,-99.99,,,1.24,Acu-Link.com,2013-08-19 11:19:00,
2013-08-19 07:34:00,69.8,68.6,29.89,NNW,337,0.0,-999.0,96,-99.99,,,1.24,Acu-Link.com,2013-08-19 11:34:00,
2013-08-19 07:49:00,70.3,69.1,29.88,ESE,112,1.1,-999.0,96,-99.99,,,1.24,Acu-Link.com,2013-08-19 11:49:00,
2013-08-19 08:04:00,70.3,69.1,29.89,SSW,202,0.0,-999.0,96,-99.99,,,1.24,Acu-Link.com,2013-08-19 12:04:00,
2013-08-19 08:19:00,70.5,69.3,29.89,ENE,67,0.0,-999.0,96,-99.99,,,1.25,Acu-Link.com,2013-08-19 12:19:00,
2013-08-19 08:34:00,70.9,69.7,29.89,ENE,67,1.1,-999.0,96,-99.99,,,1.25,Acu-Link.com,2013-08-19 12:34:00,
2013-08-19 08:49:00,71.2,70.0,29.90,NE,45,3.2,-999.0,96,-99.99,,,1.27,Acu-Link.com,2013-08-19 12:49:00,
2013-08-19 09:05:00,71.8,70.6,29.91,SW,225,0.0,-999.0,96,-99.99,,,1.27,Acu-Link.com,2013-08-19 13:05:00,
2013-08-19 09:20:00,71.8,70.3,29.91,WNW,292,0.0,-999.0,95,-99.99,,,1.28,Acu-Link.com,2013-08-19 13:20:00,
2013-08-19 09:35:00,72.3,70.8,29.91,WSW,247,0.0,-999.0,95,-99.99,,,1.28,Acu-Link.com,2013-08-19 13:35:00,
2013-08-19 09:50:00,72.3,70.5,29.91,West,270,0.0,-999.0,94,-99.99,,,1.28,Acu-Link.com,2013-08-19 13:50:00,
2013-08-19 10:05:00,72.7,70.9,29.90,ENE,67,0.0,-999.0,94,-99.99,,,1.28,Acu-Link.com,2013-08-19 14:05:00,
2013-08-19 10:20:00,73.6,71.4,29.91,NNE,22,0.0,-999.0,93,-99.99,,,1.28,Acu-Link.com,2013-08-19 14:20:00,
2013-08-19 10:35:00,74.1,71.6,29.91,NNE,22,1.1,-999.0,92,-99.99,,,1.28,Acu-Link.com,2013-08-19 14:35:00,
2013-08-19 10:50:00,73.9,71.4,29.92,ESE,112,0.0,-999.0,92,-99.99,,,1.30,Acu-Link.com,2013-08-19 14:50:00,
2013-08-19 11:05:00,74.1,71.9,29.91,SW,225,0.0,-999.0,93,-99.99,,,1.31,Acu-Link.com,2013-08-19 15:05:00,
2013-08-19 11:21:00,74.1,71.9,29.92,East,90,0.0,-999.0,93,-99.99,,,1.31,Acu-Link.com,2013-08-19 15:21:00,
2013-08-19 11:36:00,74.8,72.6,29.92,West,270,1.1,-999.0,93,-99.99,,,1.34,Acu-Link.com,2013-08-19 15:36:00,
2013-08-19 11:51:00,75.9,73.4,29.91,West,270,0.0,-999.0,92,-99.99,,,1.36,Acu-Link.com,2013-08-19 15:51:00,
2013-08-19 12:06:00,76.3,73.8,29.92,South,180,0.0,-999.0,92,-99.99,,,1.36,Acu-Link.com,2013-08-19 16:06:00,
2013-08-19 12:21:00,76.6,73.8,29.91,SW,225,0.0,-999.0,91,-99.99,,,1.36,Acu-Link.com,2013-08-19 16:21:00,
2013-08-19 12:36:00,77.2,74.0,29.91,WSW,247,0.0,-999.0,90,-99.99,,,1.36,Acu-Link.com,2013-08-19 16:36:00,
2013-08-19 12:51:00,77.9,74.0,29.91,NNE,22,1.1,-999.0,88,-99.99,,,1.36,Acu-Link.com,2013-08-19 16:51:00,
2013-08-19 13:06:00,78.4,74.5,29.90,WSW,247,0.0,-999.0,88,-99.99,,,1.36,Acu-Link.com,2013-08-19 17:06:00,
2013-08-19 13:21:00,81.0,75.0,29.90,North,0,1.7,-999.0,82,-99.99,,,1.36,Acu-Link.com,2013-08-19 17:21:00,
2013-08-19 13:37:00,80.6,74.9,29.89,SE,135,0.0,-999.0,83,-99.99,,,1.36,Acu-Link.com,2013-08-19 17:37:00,
2013-08-19 13:52:00,81.9,75.8,29.88,East,90,0.0,-999.0,82,-99.99,,,1.36,Acu-Link.com,2013-08-19 17:52:00,
2013-08-19 14:07:00,82.6,75.4,29.89,WSW,247,1.1,-999.0,79,-99.99,,,1.36,Acu-Link.com,2013-08-19 18:07:00,
2013-08-19 14:22:00,82.8,74.8,29.87,West,270,2.2,-999.0,77,-99.99,,,1.36,Acu-Link.com,2013-08-19 18:22:00,
2013-08-19 14:37:00,82.9,74.9,29.87,East,90,1.1,-999.0,77,-99.99,,,1.36,Acu-Link.com,2013-08-19 18:37:00,
2013-08-19 14:52:00,82.9,74.5,29.87,NE,45,3.2,-999.0,76,-99.99,,,1.36,Acu-Link.com,2013-08-19 18:52:00,
2013-08-19 15:07:00,80.1,74.1,29.86,West,270,1.1,-999.0,82,-99.99,,,1.36,Acu-Link.com,2013-08-19 19:07:00,
2013-08-19 15:22:00,79.7,74.8,29.86,SW,225,1.1,-999.0,85,-99.99,,,1.36,Acu-Link.com,2013-08-19 19:22:00,
2013-08-19 15:37:00,80.4,74.7,29.86,NNE,22,0.0,-999.0,83,-99.99,,,1.36,Acu-Link.com,2013-08-19 19:37:00,
2013-08-19 15:53:00,80.2,73.5,29.86,NE,45,2.7,-999.0,80,-99.99,,,1.36,Acu-Link.com,2013-08-19 19:53:00,
2013-08-19 16:08:00,79.9,73.5,29.86,South,180,0.0,-999.0,81,-99.99,,,1.36,Acu-Link.com,2013-08-19 20:08:00,
2013-08-19 16:23:00,80.2,73.8,29.86,NNE,22,0.0,-999.0,81,-99.99,,,1.36,Acu-Link.com,2013-08-19 20:23:00,
2013-08-19 16:38:00,79.9,74.3,29.84,North,0,0.0,-999.0,83,-99.99,,,1.36,Acu-Link.com,2013-08-19 20:38:00,
2013-08-19 16:53:00,79.3,73.7,29.84,ENE,67,0.0,-999.0,83,-99.99,,,1.36,Acu-Link.com,2013-08-19 20:53:00,
2013-08-19 17:08:00,78.8,73.9,29.84,SW,225,0.0,-999.0,85,-99.99,,,1.36,Acu-Link.com,2013-08-19 21:08:00,
2013-08-19 17:23:00,78.1,73.6,29.85,ESE,112,1.7,-999.0,86,-99.99,,,1.36,Acu-Link.com,2013-08-19 21:23:00,
2013-08-19 17:38:00,78.1,73.6,29.85,NNW,337,1.1,-999.0,86,-99.99,,,1.36,Acu-Link.com,2013-08-19 21:38:00,
2013-08-19 17:53:00,78.3,73.4,29.85,East,90,0.0,-999.0,85,-99.99,,,1.36,Acu-Link.com,2013-08-19 21:53:00,
2013-08-19 18:08:00,78.1,72.9,29.86,South,180,1.7,-999.0,84,-99.99,,,1.36,Acu-Link.com,2013-08-19 22:08:00,
2013-08-19 18:24:00,77.9,72.7,29.86,North,0,0.0,-999.0,84,-99.99,,,1.36,Acu-Link.com,2013-08-19 22:24:00,
2013-08-19 18:39:00,77.5,72.3,29.86,SSE,157,1.1,-999.0,84,-99.99,,,1.36,Acu-Link.com,2013-08-19 22:39:00,
2013-08-19 18:54:00,77.2,72.3,29.85,East,90,0.0,-999.0,85,-99.99,,,1.36,Acu-Link.com,2013-08-19 22:54:00,
2013-08-19 19:09:00,76.8,72.3,29.85,NNE,22,1.7,-999.0,86,-99.99,,,1.36,Acu-Link.com,2013-08-19 23:09:00,
2013-08-19 19:24:00,76.6,72.1,29.86,South,180,0.0,-999.0,86,-99.99,,,1.36,Acu-Link.com,2013-08-19 23:24:00,
2013-08-19 19:39:00,76.3,72.1,29.86,ESE,112,0.0,-999.0,87,-99.99,,,1.36,Acu-Link.com,2013-08-19 23:39:00,
2013-08-19 19:54:00,75.9,72.1,29.89,East,90,0.0,-999.0,88,-99.99,,,1.36,Acu-Link.com,2013-08-19 23:54:00,
2013-08-19 20:09:00,75.6,71.8,29.88,East,90,0.0,-999.0,88,-99.99,,,1.36,Acu-Link.com,2013-08-20 00:09:00,
2013-08-19 20:24:00,75.4,71.6,29.87,NNE,22,0.0,-999.0,88,-99.99,,,1.36,Acu-Link.com,2013-08-20 00:24:00,
2013-08-19 20:40:00,74.8,71.7,29.87,SE,135,0.0,-999.0,90,-99.99,,,1.36,Acu-Link.com,2013-08-20 00:40:00,
2013-08-19 20:55:00,74.7,71.9,29.87,West,270,0.0,-999.0,91,-99.99,,,1.36,Acu-Link.com,2013-08-20 00:55:00,
2013-08-19 21:10:00,74.5,72.0,29.87,ESE,112,0.0,-999.0,92,-99.99,,,1.36,Acu-Link.com,2013-08-20 01:10:00,
2013-08-19 21:25:00,74.3,71.8,29.87,ESE,112,0.0,-999.0,92,-99.99,,,1.36,Acu-Link.com,2013-08-20 01:25:00,
2013-08-19 21:40:00,74.3,71.8,29.89,ESE,112,0.0,-999.0,92,-99.99,,,1.36,Acu-Link.com,2013-08-20 01:40:00,
2013-08-19 21:55:00,74.3,72.1,29.88,West,270,0.0,-999.0,93,-99.99,,,1.36,Acu-Link.com,2013-08-20 01:55:00,
2013-08-19 22:10:00,74.3,72.1,29.88,ESE,112,0.0,-999.0,93,-99.99,,,1.36,Acu-Link.com,2013-08-20 02:10:00,
2013-08-19 22:25:00,74.1,71.9,29.88,NE,45,0.0,-999.0,93,-99.99,,,1.36,Acu-Link.com,2013-08-20 02:25:00,
2013-08-19 22:40:00,73.9,71.7,29.89,West,270,0.0,-999.0,93,-99.99,,,1.36,Acu-Link.com,2013-08-20 02:40:00,
2013-08-19 22:56:00,73.8,71.6,29.90,West,270,0.0,-999.0,93,-99.99,,,1.36,Acu-Link.com,2013-08-20 02:56:00,
2013-08-19 23:11:00,73.6,71.8,29.90,ENE,67,0.0,-999.0,94,-99.99,,,1.36,Acu-Link.com,2013-08-20 03:11:00,
2013-08-19 23:26:00,73.6,71.8,29.90,ENE,67,0.0,-999.0,94,-99.99,,,1.36,Acu-Link.com,2013-08-20 03:26:00,
2013-08-19 23:41:00,73.6,71.8,29.89,ENE,67,0.0,-999.0,94,-99.99,,,1.36,Acu-Link.com,2013-08-20 03:41:00,
2013-08-19 23:56:00,73.6,71.8,29.89,WNW,292,0.0,-999.0,94,-99.99,,,1.36,Acu-Link.com,2013-08-20 03:56:00,